Weather History for Drummond Island, MI

Change the Weather History Date:

Monday, December 10, 2012

  Actual Average (KCIU) Record (KCIU)
Temperature  
Mean Temperature 16 °F -  
Max Temperature 22 °F 31 °F 44 °F (1990)
Min Temperature 9 °F 16 °F -5 °F (2013)
Degree Days  
Heating Degree Days 49    
Moisture  
Dew Point 15 °F    
Average Humidity 81    
Maximum Humidity 95    
Minimum Humidity 67    
Precipitation  
Precipitation 0.00 in - - ()
Sea Level Pressure  
Sea Level Pressure 29.72 in    
Wind  
Wind Speed 6 mph (North)    
Max Wind Speed 12 mph    
Max Gust Speed 18 mph    
Visibility 9 miles    
Events Snow    
Averages and records for this station are not official NWS values.
T = Trace of Precipitation, MM = Missing Value Source: NWS Daily Summary

Daily Weather History Graph

Daily Weather History Graph

Search for Another Location

Airport:

Trip Planner

Search our weather history database for the weather conditions in past years. The results will help you decide how hot, cold, wet, or windy it might be!

Date:

Astronomy

Dec. 10, 2012 Rise Set
Actual Time 8:06 AM EST 4:49 PM EST
Civil Twilight 7:31 AM EST 5:24 PM EST
Nautical Twilight 6:54 AM EST 6:01 PM EST
Astronomical Twilight 6:17 AM EST 6:38 PM EST
Moon 4:42 AM EST (12/10) 2:43 PM EST (12/10)
Length of Visible Light 9h 52m
Length of Day
8h 43m
Waning Crescent, 10% of the Moon is Illuminated
Dec 10
Waning Crescent
Dec 13
New
Dec 20
First Quarter
Dec 28
Full
Jan 4
Last Quarter

Hourly Weather History & Observations

Time (EST) Temp. Windchill Dew Point Humidity Pressure Visibility Wind Dir Wind Speed Gust Speed Precip Events Conditions
12:17 AM 22.5 °F 16.3 °F 20.8 °F 93% 29.79 in 2.0 mi NNE 4.6 mph - N/A Snow Light Snow
12:36 AM 22.1 °F 14.7 °F 20.7 °F 94% 29.78 in 2.5 mi NNE 5.8 mph - N/A Snow Light Snow
12:57 AM 22.3 °F 12.2 °F 20.5 °F 93% 29.77 in 4.0 mi NE 9.2 mph - N/A Snow Light Snow
1:16 AM 22.3 °F 14.9 °F 20.3 °F 92% 29.74 in 4.0 mi NE 5.8 mph - N/A Snow Light Snow
1:36 AM 22.1 °F 14.7 °F 20.3 °F 93% 29.73 in 5.0 mi NE 5.8 mph - N/A Snow Light Snow
1:57 AM 21.9 °F 12.5 °F 19.6 °F 91% 29.71 in 10.0 mi NE 8.1 mph - N/A   Overcast
2:16 AM 21.7 °F 12.3 °F 19.4 °F 91% 29.71 in 10.0 mi NNE 8.1 mph - N/A   Overcast
2:36 AM 21.6 °F 11.3 °F 19.0 °F 90% 29.70 in 10.0 mi NE 9.2 mph 18.4 mph N/A   Overcast
2:57 AM 21.2 °F 10.9 °F 18.5 °F 89% 29.69 in 10.0 mi NE 9.2 mph - N/A   Overcast
3:16 AM 21.2 °F 12.6 °F 18.5 °F 89% 29.68 in 10.0 mi NNE 6.9 mph - N/A   Overcast
3:57 AM 21.6 °F 12.1 °F 18.5 °F 88% 29.66 in 10.0 mi NNE 8.1 mph - N/A   Overcast
4:16 AM 21.7 °F 15.5 °F 18.5 °F 87% 29.67 in 10.0 mi NNE 4.6 mph - N/A   Overcast
4:37 AM 21.7 °F 13.2 °F 18.5 °F 87% 29.65 in 10.0 mi NNE 6.9 mph - N/A   Overcast
4:57 AM 21.2 °F 11.7 °F 18.1 °F 88% 29.65 in 7.0 mi NNE 8.1 mph - N/A   Overcast
5:16 AM 21.2 °F 13.6 °F 18.5 °F 89% 29.64 in 4.0 mi NNE 5.8 mph - N/A Snow Light Snow
5:37 AM 20.7 °F 13.0 °F 18.5 °F 91% 29.63 in 5.0 mi NNE 5.8 mph - N/A   Overcast
5:56 AM 20.3 °F 11.5 °F 18.5 °F 93% 29.63 in 7.0 mi North 6.9 mph - N/A   Overcast
6:16 AM 20.3 °F 11.5 °F 18.5 °F 93% 29.63 in 10.0 mi NNE 6.9 mph - N/A   Overcast
6:37 AM 20.3 °F 13.8 °F 18.3 °F 92% 29.64 in 10.0 mi NNE 4.6 mph - N/A   Overcast
6:56 AM 20.3 °F 11.5 °F 17.4 °F 89% 29.63 in 10.0 mi North 6.9 mph - N/A   Overcast
7:16 AM 19.8 °F 10.8 °F 16.0 °F 85% 29.63 in 10.0 mi NNE 6.9 mph - N/A   Overcast
7:37 AM 19.4 °F 10.4 °F 15.6 °F 85% 29.63 in 10.0 mi North 6.9 mph - N/A   Overcast
7:56 AM 19.4 °F 8.6 °F 15.8 °F 86% 29.65 in 10.0 mi North 9.2 mph - N/A Snow Light Snow
8:17 AM 19.0 °F 10.0 °F 15.4 °F 86% 29.64 in 10.0 mi NNE 6.9 mph - N/A   Overcast
8:36 AM 18.9 °F 9.8 °F 15.1 °F 85% 29.64 in 10.0 mi North 6.9 mph - N/A   Overcast
8:56 AM 18.9 °F 8.8 °F 15.1 °F 85% 29.65 in 10.0 mi North 8.1 mph - N/A   Overcast
9:16 AM 18.9 °F 9.8 °F 14.9 °F 85% 29.66 in 10.0 mi North 6.9 mph - N/A   Overcast
9:37 AM 18.9 °F 9.8 °F 14.7 °F 84% 29.66 in 10.0 mi North 6.9 mph - N/A   Overcast
9:57 AM 19.2 °F 11.3 °F 14.5 °F 82% 29.66 in 10.0 mi North 5.8 mph - N/A   Overcast
10:17 AM 18.9 °F 9.8 °F 13.8 °F 81% 29.67 in 10.0 mi NNW 6.9 mph - N/A   Overcast
10:36 AM 19.0 °F 10.0 °F 13.6 °F 79% 29.67 in 10.0 mi NNW 6.9 mph - N/A   Mostly Cloudy
10:57 AM 19.6 °F 10.6 °F 13.3 °F 77% 29.67 in 10.0 mi North 6.9 mph - N/A   Mostly Cloudy
11:16 AM 19.9 °F 10.1 °F 13.3 °F 75% 29.67 in 10.0 mi NNW 8.1 mph - N/A   Mostly Cloudy
11:37 AM 20.5 °F 12.8 °F 13.5 °F 74% 29.67 in 10.0 mi NW 5.8 mph - N/A   Scattered Clouds
11:56 AM 20.7 °F 14.2 °F 13.1 °F 73% 29.67 in 10.0 mi North 4.6 mph - N/A   Scattered Clouds
12:16 PM 20.8 °F 12.1 °F 12.9 °F 71% 29.66 in 10.0 mi North 6.9 mph - N/A   Scattered Clouds
12:37 PM 21.4 °F 12.8 °F 13.5 °F 72% 29.66 in 10.0 mi North 6.9 mph - N/A   Scattered Clouds
12:56 PM 21.4 °F 12.8 °F 12.9 °F 70% 29.66 in 10.0 mi NNW 6.9 mph - N/A   Scattered Clouds
1:17 PM 22.1 °F 14.7 °F 13.1 °F 68% 29.66 in 10.0 mi NNW 5.8 mph - N/A   Clear
1:37 PM 22.1 °F 13.7 °F 12.9 °F 68% 29.67 in 10.0 mi NNW 6.9 mph - N/A   Clear
1:56 PM 22.5 °F 13.2 °F 13.3 °F 68% 29.67 in 7.0 mi NW 8.1 mph - N/A   Scattered Clouds
2:17 PM 22.1 °F 13.7 °F 13.1 °F 68% 29.68 in 10.0 mi NW 6.9 mph 16.1 mph N/A   Clear
2:37 PM 22.5 °F 15.1 °F 13.6 °F 69% 29.68 in 10.0 mi NNW 5.8 mph - N/A   Scattered Clouds
2:56 PM 22.5 °F 13.2 °F 13.1 °F 67% 29.68 in 10.0 mi NNW 8.1 mph - N/A   Clear
3:17 PM 22.5 °F 14.1 °F 13.3 °F 68% 29.69 in 10.0 mi NNW 6.9 mph - N/A   Clear
3:36 PM 22.5 °F 14.1 °F 13.3 °F 68% 29.70 in 10.0 mi NNW 6.9 mph - N/A   Clear
3:56 PM 22.6 °F 16.5 °F 13.8 °F 69% 29.71 in 10.0 mi NNW 4.6 mph 16.1 mph N/A   Clear
4:17 PM 22.3 °F 13.0 °F 13.5 °F 69% 29.72 in 10.0 mi NNW 8.1 mph - N/A   Clear
4:36 PM 22.1 °F 13.7 °F 13.6 °F 70% 29.72 in 10.0 mi NNW 6.9 mph - N/A   Clear
4:57 PM 22.1 °F 14.7 °F 14.0 °F 71% 29.74 in 10.0 mi NNW 5.8 mph - N/A   Clear
5:16 PM 21.9 °F 12.5 °F 13.8 °F 71% 29.74 in 10.0 mi NNW 8.1 mph - N/A   Clear
5:36 PM 21.9 °F 11.7 °F 14.4 °F 73% 29.75 in 10.0 mi NNW 9.2 mph - N/A   Clear
5:57 PM 21.9 °F 13.4 °F 14.4 °F 73% 29.75 in 10.0 mi NNW 6.9 mph - N/A   Scattered Clouds
6:16 PM 21.7 °F 13.2 °F 14.9 °F 75% 29.76 in 10.0 mi NNW 6.9 mph - N/A   Mostly Cloudy
6:37 PM 21.7 °F 13.2 °F 15.3 °F 76% 29.77 in 10.0 mi North 6.9 mph - N/A   Mostly Cloudy
6:57 PM 21.7 °F 11.5 °F 14.7 °F 74% 29.77 in 10.0 mi North 9.2 mph 17.3 mph N/A   Scattered Clouds
7:16 PM 20.8 °F 9.0 °F 14.0 °F 75% 29.77 in 10.0 mi North 11.5 mph 16.1 mph N/A   Clear
7:37 PM 20.1 °F 12.3 °F 13.6 °F 76% 29.79 in 10.0 mi North 5.8 mph - N/A   Clear
7:56 PM 19.8 °F 9.9 °F 13.1 °F 75% 29.80 in 10.0 mi North 8.1 mph - N/A   Clear
8:16 PM 19.4 °F 12.8 °F 13.1 °F 76% 29.82 in 10.0 mi North 4.6 mph - N/A   Clear
8:37 PM 18.5 °F 13.3 °F 13.1 °F 79% 29.83 in 10.0 mi North 3.5 mph - N/A   Clear
8:56 PM 18.1 °F 12.9 °F 12.9 °F 80% 29.83 in 10.0 mi NNE 3.5 mph - N/A   Scattered Clouds
9:16 PM 17.8 °F - 12.7 °F 81% 29.84 in 10.0 mi Calm Calm - N/A   Clear
9:56 PM 14.2 °F - 10.4 °F 85% 29.85 in 10.0 mi Calm Calm - N/A   Clear
10:17 PM 12.9 °F - 10.6 °F 90% 29.86 in 4.0 mi Calm Calm - N/A   Clear
10:36 PM 11.3 °F - 9.1 °F 91% 29.86 in 10.0 mi Calm Calm - N/A   Clear
10:56 PM 11.3 °F - 9.3 °F 92% 29.87 in 10.0 mi Calm Calm - N/A   Clear
11:17 PM 10.8 °F - 9.1 °F 93% 29.87 in 10.0 mi Calm Calm - N/A   Clear
11:36 PM 10.0 °F - 8.4 °F 93% 29.88 in 10.0 mi Calm Calm - N/A   Clear
11:56 PM 9.3 °F - 8.1 °F 95% 29.87 in 10.0 mi Calm Calm - N/A   Clear